Flag for Germany Weather past 2 weeks in Bornheim (Rheinland), North Rhine-Westphalia, Germany

51 °F


Feels Like: 51 °F
Forecast: 47 / 56 °F
Wind: 3 mph from Northeast

Location: Bonn-Hangelar

Current Time: Oct 9, 2015 at 12:04:54 AM

Latest Report: Oct 8, 2015 at 11:00 PM

Visibility: 2 mi

Pressure: 30.20 "Hg

Humidity: 99%

Dew point: 51 °F

Location of Bornheim (Rheinland)Location

Historic Weather in Bornheim (Rheinland) — Graph


Bornheim (Rheinland) temperature yesterday

Maximum temperature yesterday: 54 °F (at 6:00 PM)
Minimum temperature yesterday: 50 °F (at 7:00 AM)
Average temperature yesterday: 52 °F

Past Weeks' High & Low Weather Summary

High66 °F (Oct 6, 1:00 PM)100% (Sep 25, 7:00 AM)30.64 "Hg (Sep 25, 7:00 AM)
Low38 °F (Oct 1, 8:00 AM)48% (Sep 30, 5:00 PM)29.58 "Hg (Oct 6, 5:00 PM)
Average54 °F83%30.18 "Hg
* Reported Sep 23 10:00 PM — Oct 8 10:00 PM, Bornheim (Rheinland), Weather by CustomWeather, © 2015

Note: Actual official high and low records may vary slightly from our data, if they occured in-between our weather recording intervals... More about our weather records


Bornheim (Rheinland) weather history for previous 24 hours

Time TempWeatherWind HumidityBarometerVisibility
10:00 PM
Thu, Oct 8
51 °FFog.1 mph99%30.19 "Hg4 mi
9:00 PM52 °FOvercast.No wind98%30.19 "Hg5 mi
8:00 PM53 °FOvercast.1 mph97%30.18 "Hg6 mi
7:00 PM53 °FOvercast.1 mph95%30.17 "Hg6 mi
6:00 PM54 °FOvercast.1 mph92%30.16 "Hg9 mi
5:00 PM53 °FOvercast.2 mph91%30.16 "Hg9 mi
4:00 PM53 °FLow clouds.3 mph94%30.16 "Hg12 mi
3:00 PM53 °FOvercast.2 mph95%30.16 "Hg16 mi
2:00 PM53 °FOvercast.3 mph93%30.16 "Hg16 mi
1:00 PM53 °FLow clouds.2 mph95%30.15 "Hg12 mi
12:00 PM51 °FDrizzle. Low clouds.5 mph100%30.14 "Hg2 mi
11:00 AM51 °FPassing clouds.8 mph100%30.14 "Hg14 mi
10:00 AM51 °FDrizzle. Low clouds.5 mph99%30.12 "Hg4 mi
9:00 AM50 °FRain. Low clouds.5 mph100%30.10 "Hg3 mi
8:00 AM50 °FRain. Low clouds.5 mph100%30.08 "Hg4 mi
7:00 AM50 °FRain. Low clouds.6 mph100%30.06 "Hg5 mi
5:00 AM51 °FDrizzle. Low clouds.5 mph100%30.05 "Hg2 mi
4:00 AM51 °FDrizzle. Low clouds.5 mph100%30.05 "Hg2 mi
3:00 AM52 °FDrizzle. Low clouds.5 mph100%30.03 "Hg2 mi
2:00 AM52 °FLow clouds.6 mph99%30.03 "Hg4 mi
1:00 AM52 °FDrizzle. Low clouds.6 mph97%30.03 "Hg3 mi
Weather by CustomWeather, © 2015

See weather overviewHow to use our weather pages